View Data : List Evapotranspiration (ETo ) Reports


 
Search Evapotranspiration Reports
Station Fields:
Location:
Date Range:
Start Date:   End Date:
Searched: Report date on 6/15/2019.
Showing 1 - 50 of 117 Records. <Back  Page   Next>
DateTimeStation NumberStation NameGaugeReadingRefill LevelEvap AmtView
6/15/2019  12:00 AM  MN-AA-5  East Bethel 3.1 NE 3.20  0.05   
6/15/2019  5:00 AM  IN-OW-9  Spencer 7.0 S 5.72  0.07   
6/15/2019  5:00 AM  NY-CQ-22  Fredonia 0.8 WNW 4.50  0.15   
6/15/2019  5:20 AM  MO-CP-7  Boonville 0.5 ESE 8.58  0.12   
6/15/2019  5:22 AM  WI-MC-4  Two Rivers 1.4 N 3.12  0.02   
6/15/2019  5:30 AM  AL-MD-90  Huntsville 3.7 ENE 4.48  0.19   
6/15/2019  5:30 AM  IN-TN-1  Atlanta 4.4 W 4.65  0.15   
6/15/2019  5:50 AM  CO-GF-47  Carbondale 0.5 W 5.79  0.10   
6/15/2019  6:00 AM  IN-PT-12  Valparaiso 4.3 SW 2.25  0.11   
6/15/2019  6:00 AM  MD-MG-54  Germantown 4.6 NNE 0.15  0.11   
6/15/2019  6:00 AM  NH-CS-7  Lancaster 0.5 N 2.78  0.10   
6/15/2019  6:00 AM  WI-LN-2  Merrill 7.0 W 6.20  0.00   
6/15/2019  6:20 AM  TX-KN-118  Boerne 1.6 E 1.91  0.19   
6/15/2019  6:30 AM  IA-LN-7  Central City 6.7 W 5.70  0.08   
6/15/2019  6:35 AM  VA-HV-8  Montpelier 4.8 E 4.31  0.12   
6/15/2019  6:40 AM  TX-TV-9  West Lake Hills 2.4 NNW 8.54  0.14   
6/15/2019  7:00 AM  AZ-MR-326  Phoenix 6.3 SSW 4.72  0.15   
6/15/2019  7:00 AM  AZ-PN-50  Saddlebrooke 1.5 SW 6.54  0.28   
6/15/2019  7:00 AM  CA-HM-5  Mckinleyville 7.3 ESE 4.60  0.09   
6/15/2019  7:00 AM  CA-SD-12  Poway 3.2NE 9.33  0.12   
6/15/2019  7:00 AM  CA-SD-132  Descanso 3.7N 2.70  0.20   
6/15/2019  7:00 AM  CA-SN-100  Glen Ellen 1.9 NNW 3.70  0.10   
6/15/2019  7:00 AM  CO-EP-24  Black Forest 2.1 SSE 3.33  0.16   
6/15/2019  7:00 AM  CO-EP-188  Colorado Springs 3.7 ENE 2.46  0.20   
6/15/2019  7:00 AM  CO-JF-63  Golden 4.8 NW 2.41  0.14   
6/15/2019  7:00 AM  CO-LR-854  Loveland 2.3 NW 1.00  0.17   
6/15/2019  7:00 AM  CO-LR-623  Fort Collins 5.4 WSW 0.56  0.18   
6/15/2019  7:00 AM  CO-LG-6  Sterling 3.7 NNE 3.80  0.10   
6/15/2019  7:00 AM  FL-MR-66  The Villages 3.7 NNW 2.76  0.12   
6/15/2019  7:00 AM  GA-FY-28  Fayetteville 2.1 NNE 8.85  0.13   
6/15/2019  7:00 AM  IL-CP-1  Homer 2.0 N 4.32  0.11   
6/15/2019  7:00 AM  IL-GY-1  Carbon Hill 3.1 N 5.43  0.18   
6/15/2019  7:00 AM  IL-KN-67  St. Charles 6.0 NW 2.14  0.15   
6/15/2019  7:00 AM  IL-WF-14  El Paso 5.2 NNW 1.73  0.13   
6/15/2019  7:00 AM  IN-AL-5  Huntertown 2.6 ESE 6.30  0.14   
6/15/2019  7:00 AM  IN-BN-53  Zionsville 4.3 NNW 1.38  0.12   
6/15/2019  7:00 AM  IN-MR-13  Speedway 6.2 SSW 6.79  0.16   
6/15/2019  7:00 AM  IN-PT-133  Valparaiso 2.2 WNW 6.48  0.17   
6/15/2019  7:00 AM  IA-CL-4  Murray 1.7 W 2.41  0.09   
6/15/2019  7:00 AM  IA-CL-3  Murray 0.5 N 0.00  0.00   
6/15/2019  7:00 AM  IA-LN-36  Shellsburg 2.9 S 4.95  0.13   
6/15/2019  7:00 AM  IA-TY-2  New Market 4.7 N 5.88  0.09   
6/15/2019  7:00 AM  KS-SG-111  Wichita 5.9 WSW 5.18  0.00   
6/15/2019  7:00 AM  KY-FR-1  Frankfort 3.3 NE 3.82  0.17   
6/15/2019  7:00 AM  KY-ME-8  Harrodsburg 10.8 NW 4.03  0.17   
6/15/2019  7:00 AM  ME-LN-1  Newcastle 2.1 SW 3.28  0.06   
6/15/2019  7:00 AM  MD-HR-23  Norrisville 0.6 WSW 7.49  0.11   
6/15/2019  7:00 AM  MD-MG-114  Silver Spring 1.4 ENE 0.60  0.10   
6/15/2019  7:00 AM  MA-BR-23  Attleboro 0.9 ENE 4.68  0.11   
6/15/2019  7:00 AM  MA-MD-119  Watertown 1.1 W 4.21  0.12